一网星座-0359星 (ONEWEB-0359 )

导读

ONEWEB-0359是英国OneWeb星座旗下的低轨宽带通信卫星,于北京时间2021年10月14日08:00发射入轨。卫星重约147.5公斤,运行在1200公里、倾角87.9度的低地球轨道,配备Ku/Ka波段天线,采用氙等离子体推力器,设计寿命超7年。作为全球低轨互联网星座的组成部分,它旨在为全球提供高速宽带接入,服务航空、海事、应急通信等领域。

基本信息
目录编号:
49285
目录名称:
ONEWEB-0359
国际标识:
2021-090G
轨道中心:
EARTH
卫星名称:
一网星座-0359星
卫星全名:
一网星座-0359星 (ONEWEB-0359 )
卫星状态:
在轨 (已飞行1797 天)
发射日期:
2021-10-14 UTC
国别 :
英国 (GB)
星等 :
--
该卫星已列入 空间交会检测服务 Space Conjunction Data Service (SCDS) ,当前飞行风险评估等级: 无高风险
轨道信息
数据来源 国际轨道数据 AOE轨道数据
星历时间 2026-09-15T06:46:56+0800
1天前
查看轨道信息
2026-09-15T07:00:00+0800
23小时前
查看轨道信息
半长轴 7559.917km 7559.915km
偏心率 0.0001977 0.0002127
轨道倾角 87.914° 87.915°
近地点辐角 95.025° 85.525°
升交点赤经 256.529° 256.526°
平近点角 265.111° 317.746°
近地点 1180.285km 1180.17km
远地点 1183.275km 1183.386km
周期 109.027分钟 109.027分钟
每日圈数 13.207703 13.207707
详细信息
平衡模式:
三轴稳定
覆盖范围:
全球
运营商:
一网卫星公司
运营商所在国:
英国
制造商(研发单位):
一网卫星公司
制造商所在国:
英国
使用方式:
暂无
卫星简介
OneWeb卫星网络由648颗重约125公斤的微型卫星组成,运行在1200公里的轨道上。 每颗卫星都能够提供至少每秒8千兆位的吞吐量,以使用其高吞吐量的Ku频段有效载荷为家庭和移动平台提供互联网接入。该卫星仍在工作。
2D轨道图
3D轨道图
轨道高度分析图
轨道倾角分析图
轨道综合分析图
查看轨道综合分析图
与全量物体交会距离演化趋势 订阅飞行安全评估服务
与全量物体交会风险概率演化趋势 订阅飞行安全评估服务